Location: East Arcadia
(34.1056°N, 118.0176°W)
Time: 02:37:03
(UTC+00:00)

USA 281 - Pass Details

Date: 01 April 2023
Orbit: 1078 x 1081 km, 106.0° (Epoch: 05 June)

Event Time Altitude Azimuth Distance (km) Brightness Sun altitude
Rises 12:54:00 0° 150° (SSE) 3,863 6.4 -10.1°
Reaches altitude 10° 12:56:31 10° 149° (SSE) 2,910 5.7 -9.6°
Maximum altitude 13:03:01 73° 65° (ENE) 1,127 3.6 -8.3°
Drops below altitude 10° 13:09:33 10° 343° (NNW) 2,923 5.4 -7.0°
Sets 13:12:04 0° 341° (NNW) 3,881 6.0 -6.5°
